| time (UTC) | temp F | wind direction | speed MPH | gust MPH | rain 1hr in | rain 24hr in | rain mn in | humidity % | barometer mb |
| 20260503034048 | 50 | 179 | 0.0 | 5.0 | 0.00 | 0.00 | 0.00 | 76 | 1013.2 |
| 20260503033547 | 50 | 158 | 0.0 | 5.0 | 0.00 | 0.00 | 0.00 | 76 | 1013.2 |
| 20260503033114 | 51 | 196 | 0.0 | 5.0 | 0.00 | 0.00 | 0.00 | 76 | 1013.2 |
| 20260503032551 | 51 | 0 | 0.0 | 2.0 | 0.00 | 0.00 | 0.00 | 76 | 1013.2 |
| 20260503032048 | 51 | 0 | 0.0 | 3.0 | 0.00 | 0.00 | 0.00 | 75 | 1013.3 |
| 20260503031553 | 51 | 0 | 0.0 | 3.0 | 0.00 | 0.00 | 0.00 | 75 | 1013.3 |
| 20260503031051 | 52 | 0 | 1.0 | 3.0 | 0.00 | 0.00 | 0.00 | 74 | 1013.3 |
| 20260503030552 | 52 | 193 | 0.0 | 4.0 | 0.00 | 0.00 | 0.00 | 74 | 1013.3 |
| 20260503030107 | 52 | 0 | 0.0 | 4.0 | 0.00 | 0.00 | 0.00 | 73 | 1013.3 |
| 20260503025549 | 52 | 214 | 1.0 | 4.0 | 0.00 | 0.00 | 0.00 | 74 | 1013.3 |
| 20260503025051 | 52 | 205 | 1.0 | 4.0 | 0.00 | 0.00 | 0.00 | 75 | 1013.3 |
| 20260503024601 | 52 | 204 | 0.0 | 3.0 | 0.00 | 0.00 | 0.00 | 76 | 1013.4 |
| 20260503024051 | 52 | 0 | 0.0 | 3.0 | 0.00 | 0.00 | 0.00 | 76 | 1013.4 |
| 20260503023549 | 52 | 0 | 0.0 | 3.0 | 0.00 | 0.00 | 0.00 | 76 | 1013.4 |
| 20260503023056 | 51 | 0 | 0.0 | 3.0 | 0.00 | 0.00 | 0.00 | 77 | 1013.4 |
| 20260503022551 | 51 | 212 | 0.0 | 3.0 | 0.00 | 0.00 | 0.00 | 78 | 1013.4 |
| 20260503022051 | 52 | 0 | 0.0 | 3.0 | 0.00 | 0.00 | 0.00 | 78 | 1013.4 |
| 20260503021559 | 52 | 0 | 0.0 | 3.0 | 0.00 | 0.00 | 0.00 | 78 | 1013.4 |
| 20260503021048 | 51 | 168 | 1.0 | 3.0 | 0.00 | 0.00 | 0.00 | 80 | 1013.5 |
| 20260503020548 | 51 | 176 | 1.0 | 3.0 | 0.00 | 0.00 | 0.00 | 81 | 1013.6 |
| 20260503020055 | 51 | 0 | 0.0 | 3.0 | 0.00 | 0.00 | 0.00 | 81 | 1013.5 |
| 20260503015551 | 51 | 0 | 1.0 | 4.0 | 0.00 | 0.00 | 0.00 | 81 | 1013.6 |
| 20260503015053 | 51 | 0 | 0.0 | 4.0 | 0.00 | 0.00 | 0.00 | 80 | 1013.6 |
| 20260503014551 | 51 | 179 | 2.0 | 4.0 | 0.00 | 0.00 | 0.00 | 80 | 1013.7 |
| 20260503014051 | 52 | 227 | 0.0 | 2.0 | 0.00 | 0.00 | 0.00 | 80 | 1013.7 |
| 20260503013551 | 52 | 0 | 0.0 | 0.0 | 0.00 | 0.00 | 0.00 | 80 | 1013.6 |
| 20260503013051 | 52 | 0 | 0.0 | 0.0 | 0.00 | 0.00 | 0.00 | 79 | 1013.5 |
| 20260503012621 | 53 | 0 | 0.0 | 0.0 | 0.00 | 0.00 | 0.00 | 79 | 1013.5 |
| 20260503012052 | 53 | 0 | 0.0 | 1.0 | 0.00 | 0.00 | 0.00 | 77 | 1013.5 |
| 20260503011603 | 54 | 0 | 0.0 | 2.0 | 0.00 | 0.00 | 0.00 | 76 | 1013.7 |
| 20260503011054 | 55 | 0 | 0.0 | 3.0 | 0.00 | 0.00 | 0.00 | 75 | 1013.7 |
| 20260503010551 | 55 | 0 | 1.0 | 4.0 | 0.00 | 0.00 | 0.00 | 74 | 1013.7 |
| 20260503010050 | 55 | 148 | 1.0 | 4.0 | 0.00 | 0.00 | 0.00 | 74 | 1013.8 |
| 20260503005551 | 55 | 169 | 2.0 | 4.0 | 0.00 | 0.00 | 0.00 | 74 | 1013.9 |
| 20260503005048 | 54 | 164 | 1.0 | 4.0 | 0.00 | 0.00 | 0.00 | 76 | 1014.0 |
| 20260503004610 | 54 | 184 | 2.0 | 4.0 | 0.00 | 0.00 | 0.00 | 77 | 1014.0 |
| 20260503004050 | 54 | 166 | 2.0 | 4.0 | 0.00 | 0.00 | 0.00 | 77 | 1014.0 |
| 20260503003548 | 54 | 153 | 0.0 | 2.0 | 0.00 | 0.00 | 0.00 | 76 | 1014.0 |
| 20260503003055 | 55 | 152 | 0.0 | 2.0 | 0.00 | 0.00 | 0.00 | 74 | 1014.1 |
| 20260503002551 | 56 | 0 | 0.0 | 2.0 | 0.00 | 0.00 | 0.00 | 73 | 1014.2 |
| 20260503002053 | 56 | 251 | 1.0 | 2.0 | 0.00 | 0.00 | 0.00 | 73 | 1014.3 |
| 20260503001553 | 56 | 0 | 0.0 | 2.0 | 0.00 | 0.00 | 0.00 | 74 | 1014.2 |
| 20260503001052 | 56 | 0 | 0.0 | 2.0 | 0.00 | 0.00 | 0.00 | 72 | 1014.4 |
| 20260503000551 | 57 | 184 | 0.0 | 4.0 | 0.00 | 0.00 | 0.00 | 71 | 1014.5 |
| 20260503000053 | 57 | 219 | 1.0 | 4.0 | 0.00 | 0.00 | 0.00 | 71 | 1014.5 |
| 20260502235550 | 57 | 188 | 2.0 | 4.0 | 0.00 | 0.00 | 0.00 | 72 | 1014.5 |
| 20260502235051 | 56 | 196 | 2.0 | 4.0 | 0.00 | 0.00 | 0.00 | 74 | 1014.6 |
| 20260502234554 | 56 | 219 | 1.0 | 3.0 | 0.00 | 0.00 | 0.00 | 75 | 1014.6 |
| 20260502234051 | 56 | 211 | 1.0 | 3.0 | 0.00 | 0.00 | 0.00 | 75 | 1014.5 |
| 20260502233551 | 56 | 205 | 1.0 | 3.0 | 0.00 | 0.00 | 0.00 | 75 | 1014.6 |
| 20260502233051 | 56 | 0 | 1.0 | 4.0 | 0.00 | 0.00 | 0.00 | 75 | 1014.6 |
| 20260502232552 | 57 | 170 | 1.0 | 4.0 | 0.00 | 0.00 | 0.00 | 74 | 1014.6 |
| 20260502232048 | 57 | 181 | 1.0 | 4.0 | 0.00 | 0.00 | 0.00 | 74 | 1014.6 |
| 20260502231557 | 57 | 197 | 1.0 | 3.0 | 0.00 | 0.00 | 0.00 | 73 | 1014.7 |
| 20260502231052 | 57 | 195 | 1.0 | 3.0 | 0.00 | 0.00 | 0.00 | 73 | 1014.6 |
| 20260502230551 | 57 | 207 | 1.0 | 4.0 | 0.00 | 0.00 | 0.00 | 73 | 1014.7 |
| 20260502230054 | 57 | 190 | 1.0 | 4.0 | 0.00 | 0.00 | 0.00 | 73 | 1014.8 |
| 20260502225551 | 58 | 184 | 2.0 | 4.0 | 0.00 | 0.00 | 0.00 | 72 | 1014.7 |
| 20260502225050 | 58 | 168 | 1.0 | 4.0 | 0.00 | 0.00 | 0.00 | 72 | 1014.7 |
| 20260502224557 | 58 | 180 | 2.0 | 4.0 | 0.00 | 0.00 | 0.00 | 72 | 1014.7 |
| 20260502224050 | 58 | 166 | 1.0 | 4.0 | 0.00 | 0.00 | 0.00 | 72 | 1014.9 |
| 20260502223551 | 58 | 210 | 2.0 | 5.0 | 0.00 | 0.00 | 0.00 | 73 | 1014.9 |
| 20260502223059 | 57 | 212 | 2.0 | 5.0 | 0.00 | 0.00 | 0.00 | 74 | 1014.9 |
| 20260502222552 | 57 | 195 | 1.0 | 3.0 | 0.00 | 0.00 | 0.00 | 77 | 1014.9 |
| 20260502222052 | 56 | 0 | 1.0 | 4.0 | 0.00 | 0.00 | 0.00 | 79 | 1014.9 |
| 20260502221604 | 55 | 188 | 1.0 | 4.0 | 0.00 | 0.00 | 0.00 | 81 | 1014.9 |
| 20260502221048 | 55 | 204 | 1.0 | 3.0 | 0.00 | 0.00 | 0.00 | 82 | 1014.9 |
| 20260502220555 | 55 | 217 | 1.0 | 2.0 | 0.00 | 0.00 | 0.00 | 84 | 1015.0 |
| 20260502220141 | 55 | 183 | 0.0 | 2.0 | 0.00 | 0.00 | 0.00 | 84 | 1015.0 |
| 20260502215549 | 55 | 184 | 0.0 | 2.0 | 0.00 | 0.00 | 0.00 | 84 | 1015.0 |
| 20260502215050 | 55 | 212 | 0.0 | 2.0 | 0.00 | 0.00 | 0.00 | 85 | 1015.0 |
| 20260502214554 | 55 | 0 | 0.0 | 0.0 | 0.00 | 0.00 | 0.00 | 85 | 1015.0 |
| 20260502214051 | 55 | 0 | 0.0 | 0.0 | 0.00 | 0.00 | 0.00 | 85 | 1015.1 |
| 20260502213551 | 55 | 0 | 0.0 | 0.0 | 0.00 | 0.00 | 0.00 | 85 | 1015.0 |
| 20260502213101 | 55 | 0 | 0.0 | 0.0 | 0.00 | 0.00 | 0.00 | 85 | 1015.0 |
| 20260502212552 | 55 | 0 | 0.0 | 0.0 | 0.00 | 0.00 | 0.00 | 85 | 1015.0 |
| 20260502212053 | 55 | 0 | 0.0 | 0.0 | 0.00 | 0.00 | 0.00 | 85 | 1015.1 |
| 20260502211555 | 55 | 0 | 0.0 | 0.0 | 0.00 | 0.00 | 0.00 | 85 | 1015.1 |
| 20260502211052 | 55 | 0 | 0.0 | 0.0 | 0.00 | 0.00 | 0.00 | 85 | 1015.1 |
| 20260502210551 | 55 | 0 | 0.0 | 0.0 | 0.00 | 0.00 | 0.00 | 85 | 1015.1 |
| 20260502205551 | 55 | 0 | 0.0 | 0.0 | 0.00 | 0.00 | 0.00 | 85 | 1015.2 |
| 20260502205051 | 55 | 0 | 0.0 | 0.0 | 0.00 | 0.00 | 0.00 | 84 | 1015.2 |
| 20260502204606 | 55 | 0 | 0.0 | 0.0 | 0.00 | 0.00 | 0.00 | 84 | 1015.2 |
| 20260502204051 | 55 | 0 | 0.0 | 0.0 | 0.00 | 0.00 | 0.00 | 84 | 1015.3 |
| 20260502203550 | 55 | 0 | 0.0 | 0.0 | 0.00 | 0.00 | 0.00 | 84 | 1015.3 |
| 20260502203105 | 55 | 0 | 0.0 | 0.0 | 0.00 | 0.00 | 0.00 | 84 | 1015.2 |
| 20260502202552 | 56 | 0 | 0.0 | 0.0 | 0.00 | 0.00 | 0.00 | 83 | 1015.2 |
| 20260502202051 | 56 | 0 | 0.0 | 1.0 | 0.00 | 0.00 | 0.00 | 84 | 1015.2 |
| 20260502201556 | 56 | 0 | 0.0 | 1.0 | 0.00 | 0.00 | 0.00 | 84 | 1015.2 |
| 20260502201048 | 56 | 0 | 0.0 | 2.0 | 0.00 | 0.00 | 0.00 | 84 | 1015.3 |
| 20260502200551 | 56 | 0 | 0.0 | 2.0 | 0.00 | 0.00 | 0.00 | 84 | 1015.3 |
| 20260502200054 | 56 | 0 | 0.0 | 1.0 | 0.00 | 0.00 | 0.00 | 83 | 1015.3 |
| 20260502195550 | 56 | 0 | 0.0 | 1.0 | 0.00 | 0.00 | 0.00 | 83 | 1015.2 |
| 20260502195050 | 57 | 0 | 0.0 | 1.0 | 0.00 | 0.00 | 0.00 | 83 | 1015.3 |
| 20260502194557 | 57 | 0 | 0.0 | 2.0 | 0.00 | 0.00 | 0.00 | 82 | 1015.3 |
| 20260502194051 | 57 | 0 | 0.0 | 2.0 | 0.00 | 0.00 | 0.00 | 81 | 1015.2 |
| 20260502193551 | 58 | 0 | 0.0 | 3.0 | 0.00 | 0.00 | 0.00 | 81 | 1015.2 |
| 20260502193048 | 58 | 233 | 0.0 | 3.0 | 0.00 | 0.00 | 0.00 | 81 | 1015.3 |
| 20260502192554 | 58 | 269 | 0.0 | 2.0 | 0.00 | 0.00 | 0.00 | 82 | 1015.4 |
| 20260502192049 | 58 | 0 | 0.0 | 0.0 | 0.00 | 0.00 | 0.00 | 82 | 1015.3 |
| 20260502191605 | 59 | 0 | 0.0 | 1.0 | 0.00 | 0.00 | 0.00 | 81 | 1015.3 |
| 20260502191052 | 59 | 0 | 0.0 | 1.0 | 0.00 | 0.00 | 0.00 | 81 | 1015.2 |
| 20260502190550 | 59 | 0 | 0.0 | 2.0 | 0.00 | 0.00 | 0.00 | 81 | 1015.2 |
| 20260502190101 | 60 | 105 | 0.0 | 2.0 | 0.00 | 0.00 | 0.00 | 80 | 1015.2 |
| 20260502185551 | 60 | 0 | 0.0 | 2.0 | 0.00 | 0.00 | 0.00 | 79 | 1015.1 |
| 20260502185048 | 61 | 0 | 0.0 | 2.0 | 0.00 | 0.00 | 0.00 | 79 | 1015.1 |
| 20260502184551 | 61 | 147 | 0.0 | 3.0 | 0.00 | 0.00 | 0.00 | 78 | 1015.2 |
| 20260502184048 | 61 | 185 | 1.0 | 3.0 | 0.00 | 0.00 | 0.00 | 78 | 1015.3 |
| 20260502183551 | 61 | 167 | 0.0 | 3.0 | 0.00 | 0.00 | 0.00 | 78 | 1015.3 |
| 20260502183059 | 61 | 0 | 0.0 | 4.0 | 0.00 | 0.00 | 0.00 | 78 | 1015.3 |
| 20260502182548 | 61 | 0 | 1.0 | 4.0 | 0.00 | 0.00 | 0.00 | 78 | 1015.3 |
| 20260502182050 | 61 | 163 | 0.0 | 2.0 | 0.00 | 0.00 | 0.00 | 78 | 1015.3 |
| 20260502181548 | 61 | 0 | 0.0 | 2.0 | 0.00 | 0.00 | 0.00 | 78 | 1015.2 |
| 20260502181050 | 61 | 138 | 0.0 | 2.0 | 0.00 | 0.00 | 0.00 | 78 | 1015.2 |
| 20260502180550 | 61 | 0 | 1.0 | 2.0 | 0.00 | 0.00 | 0.00 | 78 | 1015.2 |
| 20260502164048 | 64 | 241 | 0.0 | 4.0 | 0.00 | 0.00 | 0.00 | 71 | 1015.5 |
| 20260502163550 | 65 | 245 | 1.0 | 4.0 | 0.00 | 0.00 | 0.00 | 71 | 1015.5 |
| 20260502163110 | 65 | 229 | 1.0 | 6.0 | 0.00 | 0.00 | 0.00 | 70 | 1015.6 |
| 20260502162551 | 65 | 0 | 2.0 | 7.0 | 0.00 | 0.00 | 0.00 | 70 | 1015.8 |
| 20260502162050 | 64 | 308 | 3.0 | 7.0 | 0.00 | 0.00 | 0.00 | 70 | 1015.8 |
| 20260502161551 | 65 | 290 | 4.0 | 7.0 | 0.00 | 0.00 | 0.00 | 71 | 1015.8 |
| 20260502161048 | 65 | 324 | 3.0 | 8.0 | 0.00 | 0.00 | 0.00 | 70 | 1015.9 |
| 20260502160550 | 66 | 286 | 5.0 | 8.0 | 0.00 | 0.00 | 0.00 | 69 | 1016.0 |
| 20260502152052 | 70 | 206 | 3.0 | 10.0 | 0.00 | 0.00 | 0.00 | 57 | 1016.3 |
| 20260502151558 | 70 | 214 | 4.0 | 10.0 | 0.00 | 0.00 | 0.00 | 56 | 1016.4 |
| 20260502151050 | 70 | 182 | 3.0 | 9.0 | 0.00 | 0.00 | 0.00 | 56 | 1016.5 |
| 20260502150549 | 70 | 200 | 4.0 | 10.0 | 0.00 | 0.00 | 0.00 | 57 | 1016.1 |
| 20260502150106 | 71 | 171 | 4.0 | 16.0 | 0.00 | 0.00 | 0.00 | 57 | 1016.2 |
| 20260502130550 | 73 | 238 | 7.0 | 17.0 | 0.00 | 0.00 | 0.00 | 55 | 1018.1 |
| 20260502130107 | 73 | 137 | 4.0 | 17.0 | 0.00 | 0.00 | 0.00 | 55 | 1018.2 |
| 20260502123550 | 73 | 129 | 5.0 | 9.0 | 0.00 | 0.00 | 0.00 | 53 | 1018.3 |
| 20260502123104 | 73 | 183 | 4.0 | 12.0 | 0.00 | 0.00 | 0.00 | 53 | 1018.4 |
| 20260502122550 | 73 | 213 | 5.0 | 12.0 | 0.00 | 0.00 | 0.00 | 51 | 1018.4 |
| 20260502122051 | 74 | 173 | 3.0 | 12.0 | 0.00 | 0.00 | 0.00 | 54 | 1018.5 |
| 20260502121600 | 73 | 245 | 3.0 | 12.0 | 0.00 | 0.00 | 0.00 | 51 | 1018.5 |
| 20260502121053 | 73 | 302 | 6.0 | 12.0 | 0.00 | 0.00 | 0.00 | 52 | 1018.6 |
| 20260502120550 | 72 | 205 | 3.0 | 13.0 | 0.00 | 0.00 | 0.00 | 52 | 1018.8 |
| 20260502115554 | 72 | 202 | 3.0 | 11.0 | 0.00 | 0.00 | 0.00 | 53 | 1019.0 |
| 20260502115050 | 72 | 182 | 6.0 | 13.0 | 0.00 | 0.00 | 0.00 | 52 | 1019.1 |
| 20260502114552 | 72 | 150 | 4.0 | 13.0 | 0.00 | 0.00 | 0.00 | 52 | 1019.2 |
| 20260502114050 | 72 | 192 | 4.0 | 12.0 | 0.00 | 0.00 | 0.00 | 55 | 1019.4 |
| 20260502113552 | 71 | 205 | 6.0 | 12.0 | 0.00 | 0.00 | 0.00 | 55 | 1019.4 |
| 20260502113055 | 71 | 126 | 6.0 | 11.0 | 0.00 | 0.00 | 0.00 | 55 | 1019.5 |
| 20260502112550 | 71 | 193 | 1.0 | 10.0 | 0.00 | 0.00 | 0.00 | 56 | 1019.5 |
| 20260502112048 | 71 | 149 | 5.0 | 10.0 | 0.00 | 0.00 | 0.00 | 56 | 1019.6 |
| 20260502111554 | 70 | 210 | 5.0 | 10.0 | 0.00 | 0.00 | 0.00 | 56 | 1019.6 |
| 20260502111054 | 70 | 164 | 3.0 | 12.0 | 0.00 | 0.00 | 0.00 | 56 | 1019.6 |
| 20260502110549 | 70 | 143 | 6.0 | 12.0 | 0.00 | 0.00 | 0.00 | 56 | 1019.7 |
| 20260502110051 | 70 | 192 | 6.0 | 12.0 | 0.00 | 0.00 | 0.00 | 56 | 1019.7 |
| 20260502105547 | 70 | 169 | 5.0 | 12.0 | 0.00 | 0.00 | 0.00 | 56 | 1019.7 |
| 20260502105052 | 69 | 158 | 4.0 | 11.0 | 0.00 | 0.00 | 0.00 | 56 | 1019.7 |
| 20260502104549 | 69 | 166 | 6.0 | 11.0 | 0.00 | 0.00 | 0.00 | 55 | 1019.8 |
| 20260502104050 | 69 | 165 | 6.0 | 11.0 | 0.00 | 0.00 | 0.00 | 56 | 1019.8 |
| 20260502103550 | 69 | 210 | 6.0 | 11.0 | 0.00 | 0.00 | 0.00 | 55 | 1019.8 |
| 20260502103049 | 69 | 168 | 6.0 | 10.0 | 0.00 | 0.00 | 0.00 | 56 | 1019.8 |
| 20260502102549 | 68 | 200 | 3.0 | 7.0 | 0.00 | 0.00 | 0.00 | 57 | 1019.8 |
| 20260502102050 | 67 | 122 | 1.0 | 8.0 | 0.00 | 0.00 | 0.00 | 58 | 1019.8 |
| 20260502101551 | 68 | 172 | 4.0 | 8.0 | 0.00 | 0.00 | 0.00 | 59 | 1019.9 |
| 20260502101053 | 68 | 166 | 4.0 | 8.0 | 0.00 | 0.00 | 0.00 | 56 | 1019.9 |
| 20260502100550 | 68 | 230 | 3.0 | 9.0 | 0.00 | 0.00 | 0.00 | 59 | 1020.0 |
| 20260502091053 | 67 | 160 | 1.0 | 5.0 | 0.00 | 0.00 | 0.00 | 62 | 1020.2 |
| 20260502090552 | 65 | 113 | 2.0 | 5.0 | 0.00 | 0.00 | 0.00 | 64 | 1020.1 |
| 20260502071052 | 56 | 148 | 0.0 | 3.0 | 0.00 | 0.00 | 0.00 | 73 | 1020.5 |
| 20260502070552 | 55 | 240 | 0.0 | 3.0 | 0.00 | 0.00 | 0.00 | 76 | 1020.6 |
| 20260502070100 | 53 | 0 | 0.0 | 3.0 | 0.00 | 0.00 | 0.00 | 76 | 1020.6 |
| 20260502065552 | 53 | 0 | 0.0 | 3.0 | 0.00 | 0.00 | 0.00 | 77 | 1020.5 |
| 20260502065051 | 53 | 0 | 0.0 | 3.0 | 0.00 | 0.00 | 0.00 | 77 | 1020.4 |
| 20260502064556 | 53 | 78 | 0.0 | 3.0 | 0.00 | 0.00 | 0.00 | 78 | 1020.4 |
| 20260502064051 | 52 | 0 | 0.0 | 3.0 | 0.00 | 0.00 | 0.00 | 78 | 1020.4 |
| 20260502063555 | 51 | 57 | 1.0 | 4.0 | 0.00 | 0.00 | 0.00 | 80 | 1020.3 |
| 20260502063053 | 50 | 78 | 0.0 | 4.0 | 0.00 | 0.00 | 0.00 | 80 | 1020.2 |
| 20260502062551 | 49 | 78 | 1.0 | 4.0 | 0.00 | 0.00 | 0.00 | 81 | 1020.2 |
| 20260502062053 | 48 | 150 | 0.0 | 4.0 | 0.00 | 0.00 | 0.00 | 80 | 1020.5 |
| 20260502061551 | 47 | 55 | 1.0 | 4.0 | 0.00 | 0.00 | 0.00 | 79 | 1020.3 |
| 20260502061052 | 47 | 0 | 1.0 | 6.0 | 0.00 | 0.00 | 0.00 | 79 | 1020.3 |
| 20260502060552 | 48 | 72 | 1.0 | 6.0 | 0.00 | 0.00 | 0.00 | 79 | 1020.2 |
| 20260502060101 | 49 | 86 | 3.0 | 6.0 | 0.00 | 0.00 | 0.00 | 78 | 1020.4 |
| 20260502055556 | 49 | 60 | 0.0 | 2.0 | 0.00 | 0.00 | 0.00 | 78 | 1020.5 |
| 20260502055051 | 49 | 0 | 0.0 | 1.0 | 0.00 | 0.00 | 0.00 | 77 | 1020.7 |
| 20260502054558 | 49 | 0 | 0.0 | 3.0 | 0.00 | 0.00 | 0.00 | 75 | 1020.8 |
| 20260502054052 | 49 | 0 | 0.0 | 3.0 | 0.00 | 0.00 | 0.00 | 75 | 1021.0 |
| 20260502053552 | 49 | 160 | 0.0 | 3.0 | 0.00 | 0.00 | 0.00 | 76 | 1020.9 |
| 20260502053052 | 48 | 0 | 0.0 | 4.0 | 0.00 | 0.00 | 0.00 | 74 | 1021.0 |
| 20260502052555 | 48 | 213 | 1.0 | 4.0 | 0.00 | 0.00 | 0.00 | 74 | 1021.1 |
| 20260502052054 | 47 | 244 | 2.0 | 5.0 | 0.00 | 0.00 | 0.00 | 75 | 1021.3 |
| 20260502051552 | 47 | 245 | 2.0 | 6.0 | 0.00 | 0.00 | 0.00 | 75 | 1021.3 |
| 20260502051051 | 47 | 264 | 2.0 | 6.0 | 0.00 | 0.00 | 0.00 | 75 | 1021.3 |
| 20260502050551 | 48 | 234 | 3.0 | 6.0 | 0.00 | 0.00 | 0.00 | 75 | 1021.2 |
| 20260502050052 | 48 | 254 | 3.0 | 6.0 | 0.00 | 0.00 | 0.00 | 74 | 1021.1 |
| 20260502045554 | 48 | 248 | 1.0 | 4.0 | 0.00 | 0.00 | 0.00 | 72 | 1021.0 |
| 20260502045053 | 47 | 0 | 0.0 | 0.0 | 0.00 | 0.00 | 0.00 | 71 | 1020.9 |
| 20260502044554 | 47 | 0 | 0.0 | 0.0 | 0.00 | 0.00 | 0.00 | 73 | 1020.8 |
| 20260502044052 | 46 | 0 | 0.0 | 0.0 | 0.00 | 0.00 | 0.00 | 71 | 1020.8 |
| 20260502043552 | 46 | 0 | 0.0 | 0.0 | 0.00 | 0.00 | 0.00 | 75 | 1020.7 |
| 20260502043102 | 46 | 0 | 0.0 | 0.0 | 0.00 | 0.00 | 0.00 | 73 | 1020.7 |
| 20260502042553 | 45 | 0 | 0.0 | 0.0 | 0.00 | 0.00 | 0.00 | 74 | 1020.7 |
| 20260502042052 | 45 | 0 | 0.0 | 0.0 | 0.00 | 0.00 | 0.00 | 74 | 1020.6 |
| 20260502041553 | 45 | 0 | 0.0 | 0.0 | 0.00 | 0.00 | 0.00 | 74 | 1020.6 |
| 20260502041051 | 45 | 0 | 0.0 | 0.0 | 0.00 | 0.00 | 0.00 | 75 | 1020.6 |
| 20260502040552 | 44 | 0 | 0.0 | 1.0 | 0.00 | 0.00 | 0.00 | 75 | 1020.6 |
| 20260502040053 | 44 | 0 | 0.0 | 1.0 | 0.00 | 0.00 | 0.00 | 76 | 1020.5 |
| 20260502035552 | 44 | 0 | 0.0 | 2.0 | 0.00 | 0.00 | 0.00 | 77 | 1020.4 |
| 20260502035052 | 44 | 0 | 0.0 | 2.0 | 0.00 | 0.00 | 0.00 | 77 | 1020.5 |
| 20260502034553 | 44 | 83 | 0.0 | 2.0 | 0.00 | 0.00 | 0.00 | 77 | 1020.6 |